[[{"header":{"parameterUnit":"m.s-1","parameterCategory":1,"la1":30.2991,"la2":30.254,"lo1":-89.0895,"lo2":-89.0444,"dy":0.0017,"dx":0.0017,"nx":28,"ny":28,"refTime":"2025-04-17T03:00:00:Z","depth":0,"parameterNumber":2,"parameterNumberName":"U-component_of_WINDS"},"data":[0,0,0,0,0,0,0,0,0,0,0,0,0,0,0,0,0,0,0,0,0,0,0,0,0,0,0,0,0,0,0,0,0,0,0,0,0,0,0,0,0,0,0,0,0,0,0,0,0,0,0,0,0,0,0,0,0,0,-3.1837,-3.1837,0,-3.1875,-3.1876,-3.1876,-3.1865,-3.1864,-3.1863,-3.1862,-3.19,-3.1901,-3.1903,0,0,0,0,0,0,0,0,0,0,0,0,0,-3.1752,-3.1754,-3.1836,-3.1837,-3.1837,-3.1875,-3.1876,-3.1876,-3.1865,-3.1864,-3.1863,-3.1862,-3.1899,-3.1901,-3.1903,0,0,0,0,0,0,0,0,0,0,0,0,0,-3.179,-3.1754,-3.1836,-3.1836,-3.1837,-3.1875,-3.1876,-3.1876,-3.1865,-3.1864,-3.1862,-3.1861,-3.1898,-3.1901,-3.1903,-3.1943,0,0,-3.1911,-3.1912,0,0,0,0,0,0,0,0,-3.1788,-3.1793,-3.1836,-3.1836,-3.1837,-3.1864,-3.186,-3.1899,-3.1865,-3.1854,-3.1862,-3.1861,-3.1888,-3.1892,-3.1902,-3.1945,-3.1947,-3.1912,-3.1913,-3.1914,-3.1915,0,0,0,0,0,0,0,-3.1785,-3.1791,-3.1852,-3.1836,-3.1837,-3.1834,-3.1838,-3.1867,-3.1877,-3.1855,-3.1854,-3.1859,-3.1889,-3.1899,-3.1902,-3.1947,-3.1912,-3.1914,-3.1915,-3.1916,-3.2027,-3.2028,0,0,0,0,0,0,-3.1782,-3.1789,-3.185,-3.1853,-3.1809,-3.1837,-3.1841,-3.1856,-3.1877,-3.1879,-3.186,-3.1858,-3.1895,-3.1899,-3.1904,-3.1952,-3.1914,-3.1917,-3.1918,-3.2026,-3.2027,-3.2029,0,0,0,0,0,0,-3.178,-3.1788,-3.1849,-3.1821,-3.1828,-3.1839,-3.1857,-3.1858,-3.1868,-3.1881,-3.1883,-3.1869,-3.1894,-3.19,-3.1934,-3.1953,-3.1918,-3.192,-3.2024,-3.2026,-3.2028,-3.2049,0,0,0,0,0,0,-3.1778,-3.1787,-3.1802,-3.1821,-3.183,-3.1879,-3.1858,-3.1859,-3.1873,-3.1871,-3.189,-3.1892,-3.1894,-3.193,-3.1937,-3.1956,-3.1922,-3.2022,-3.2025,-3.2027,-3.2046,-3.2051,-3.2056,0,0,0,0,0,-3.1775,-3.1806,-3.1803,-3.1811,-3.1849,-3.188,-3.1885,-3.1887,-3.1875,-3.189,-3.1899,-3.1891,-3.1951,-3.1934,-3.1941,-3.1961,-3.2021,-3.2024,-3.2027,-3.2044,-3.205,-3.2056,0,0,0,0,0,0,-3.1788,-3.1808,-3.1805,-3.1843,-3.186,-3.1878,-3.1897,-3.1893,-3.1913,-3.1911,-3.1913,-3.1917,-3.1952,-3.196,-3.1941,-3.2002,-3.1984,-3.1989,-3.1995,-3.2,-3.2005,-3.2001,-3.1924,0,0,0,0,0,-3.1795,-3.1819,-3.1835,-3.1867,-3.1876,-3.1885,-3.1899,-3.19,-3.1917,-3.1923,-3.1934,-3.1951,-3.1973,-3.1988,-3.2009,-3.2049,-3.2052,-3.2067,-3.2071,-3.2075,-3.2078,-3.21,-3.2107,-3.2039,-3.2039,-3.2039,0,0,-3.181,-3.1824,-3.1839,-3.187,-3.1883,-3.1907,-3.1891,-3.1917,-3.1935,-3.1927,-3.196,-3.1969,-3.1987,-3.2025,-3.2042,-3.2033,-3.2098,-3.2079,-3.2082,-3.2083,-3.2104,-3.211,-3.2116,-3.2041,-3.2041,-3.204,0,0,-3.1849,-3.1863,-3.1891,-3.1905,-3.1926,-3.1932,-3.1939,-3.1958,-3.1964,-3.1998,-3.1993,-3.2014,-3.2053,-3.2066,-3.2078,-3.2126,-3.212,-3.2134,-3.2156,-3.2178,-3.2183,-3.2188,-3.2204,-3.221,-3.2137,-3.2137,-3.2137,0,-3.1865,-3.1901,-3.1906,-3.1933,-3.1947,-3.1943,-3.1972,-3.1985,-3.2011,-3.2021,-3.2012,-3.2061,-3.2073,-3.2114,-3.2126,-3.2136,-3.2144,-3.213,-3.2182,-3.2187,-3.2192,-3.2207,-3.2214,-3.2139,-3.2139,-3.2138,-3.2138,0,-3.1919,-3.1945,-3.1966,-3.1992,-3.2009,-3.2037,-3.2046,-3.2062,-3.2063,-3.207,-3.2105,-3.212,-3.2145,-3.2155,-3.2155,-3.2196,-3.219,-3.2182,-3.2163,-3.2199,-3.2214,-3.222,-3.2141,-3.214,-3.214,-3.2139,0,0,-3.1964,-3.1996,-3.2003,-3.2016,-3.2039,-3.2059,-3.2088,-3.2113,-3.2127,-3.2146,-3.2169,-3.2204,-3.2197,-3.221,-3.2212,-3.2232,-3.2269,-3.2221,-3.2221,-3.2228,-3.2315,-3.232,-3.2327,-3.2266,-3.2267,-3.2268,-3.2313,0,-3.2005,-3.2055,-3.2061,-3.2105,-3.2129,-3.2127,-3.2152,-3.217,-3.2178,-3.22,-3.2209,-3.2233,-3.2222,-3.2231,-3.225,-3.226,-3.2286,-3.2257,-3.2287,-3.2288,-3.228,-3.2334,-3.2339,-3.2381,-3.2319,-3.232,-3.232,0,-3.2058,-3.208,-3.2127,-3.2149,-3.2159,-3.2181,-3.2206,-3.2227,-3.2247,-3.2252,-3.2269,-3.2269,-3.2299,-3.2281,-3.2322,-3.2302,-3.2315,-3.2322,-3.2324,-3.2325,-3.2305,-3.2336,-3.2394,-3.24,-3.233,-3.2329,-3.2328,0,-3.2085,-3.2127,-3.216,-3.2171,-3.2198,-3.2214,-3.2226,-3.2245,-3.226,-3.2282,-3.2292,-3.2317,-3.233,-3.2349,-3.2356,-3.2343,-3.2397,-3.2379,-3.2401,-3.2401,-3.241,-3.2409,-3.247,-3.2421,-3.2421,-3.2421,-3.2421,0,-3.2129,-3.2157,-3.2173,-3.2193,-3.2226,-3.2234,-3.2265,-3.2276,-3.2294,-3.2317,-3.2317,-3.2338,-3.2348,-3.237,-3.2376,-3.2409,-3.2415,-3.242,-3.242,-3.2418,-3.2418,-3.2425,-3.2422,-3.2423,-3.2423,-3.2422,-3.2422,0,-3.2163,-3.2175,-3.2211,-3.2235,-3.2242,-3.2264,-3.2284,-3.2304,-3.2314,-3.2343,-3.235,-3.2365,-3.2392,-3.2402,-3.2435,-3.2439,-3.2476,-3.2475,-3.2469,-3.2469,-3.2489,-3.2487,-3.2556,-3.2565,-3.2512,-3.2513,-3.2513,0,-3.2189,-3.2211,-3.2238,-3.2253,-3.2266,-3.2291,-3.2308,-3.2317,-3.2334,-3.236,-3.2377,-3.2405,-3.2426,-3.247,-3.2483,-3.2509,-3.2508,-3.253,-3.2511,-3.2509,-3.2507,-3.2505,-3.2507,-3.2533,-3.2533,-3.2534,-3.2534,0,-3.2233,-3.2239,-3.2263,-3.2289,-3.2309,-3.233,-3.2351,-3.2364,-3.2376,-3.2396,-3.2424,-3.2441,-3.2476,-3.2503,-3.2529,-3.2541,-3.254,-3.2541,-3.2547,-3.2544,-3.2539,-3.2541,-3.2477,-3.2538,-3.2538,-3.2538,-3.2537,-3.2537,-3.2264,-3.2284,-3.2306,-3.2333,-3.235,-3.237,-3.239,-3.2403,-3.2427,-3.2456,-3.2461,-3.2491,-3.2513,-3.2548,-3.2562,-3.2586,-3.2579,-3.2588,-3.259,-3.2592,-3.2593,-3.2537,-3.2591,-3.2591,-3.259,-3.259,-3.259,0,-3.2307,-3.2322,-3.2347,-3.2377,-3.2398,-3.2397,-3.2421,-3.2438,-3.2465,-3.2486,-3.2509,-3.2542,-3.2568,-3.2585,-3.2613,-3.2628,-3.2628,-3.2635,-3.2633,-3.2636,-3.2597,-3.2589,-3.2635,-3.2635,-3.2635,-3.2634,-3.2634,-3.2634,-3.2332,-3.2366,-3.2375,-3.2417,-3.2432,-3.2463,-3.2476,-3.2494,-3.2511,-3.2548,-3.2571,-3.2582,-3.2602,-3.2631,-3.2655,-3.266,-3.2669,-3.2676,-3.268,-3.2643,-3.2638,-3.2634,-3.2626,-3.2678,-3.2678,-3.2716,-3.2716,-3.2716]},{"header":{"parameterUnit":"m.s-1","parameterCategory":1,"la1":30.2991,"la2":30.254,"lo1":-89.0895,"lo2":-89.0444,"dy":0.0017,"dx":0.0017,"nx":28,"ny":28,"refTime":"2025-04-17T03:00:00:Z","depth":0,"parameterNumber":3,"parameterNumberName":"V-component_of_WINDS"},"data":[0,0,0,0,0,0,0,0,0,0,0,0,0,0,0,0,0,0,0,0,0,0,0,0,0,0,0,0,0,0,0,0,0,0,0,0,0,0,0,0,0,0,0,0,0,0,0,0,0,0,0,0,0,0,0,0,0,0,4.532,4.5321,0,4.5429,4.543,4.5431,4.5484,4.5484,4.5484,4.5484,4.5589,4.5591,4.5594,0,0,0,0,0,0,0,0,0,0,0,0,0,4.5151,4.5154,4.5319,4.5321,4.5322,4.5429,4.543,4.5432,4.5484,4.5484,4.5484,4.5484,4.5588,4.5591,4.5595,0,0,0,0,0,0,0,0,0,0,0,0,0,4.5238,4.5155,4.5319,4.5361,4.5366,4.5428,4.543,4.5432,4.5484,4.5484,4.5484,4.5484,4.5587,4.5591,4.5595,4.5621,0,0,4.5608,4.561,0,0,0,0,0,0,0,0,4.5233,4.5245,4.5354,4.5359,4.5364,4.5443,4.5409,4.5495,4.5484,4.5439,4.5484,4.5484,4.554,4.5548,4.5568,4.5626,4.5631,4.5608,4.5611,4.5613,4.5614,0,0,0,0,0,0,0,4.5227,4.524,4.5363,4.5355,4.5362,4.5373,4.5386,4.5426,4.5488,4.5443,4.5447,4.546,4.5543,4.5564,4.5571,4.5632,4.5608,4.5612,4.5614,4.5616,4.5719,4.572,0,0,0,0,0,0,4.5215,4.5235,4.5359,4.5366,4.5298,4.5376,4.539,4.5417,4.5488,4.5499,4.5459,4.5462,4.5557,4.5566,4.5575,4.5612,4.5613,4.5616,4.5619,4.5719,4.572,4.572,0,0,0,0,0,0,4.5211,4.5226,4.5355,4.5302,4.5319,4.5379,4.5409,4.542,4.5441,4.55,4.5511,4.547,4.5557,4.5569,4.561,4.5616,4.5618,4.5622,4.5719,4.5719,4.572,4.5685,0,0,0,0,0,0,4.5206,4.5224,4.5236,4.5302,4.5322,4.539,4.541,4.5422,4.5449,4.5453,4.5513,4.5523,4.5558,4.5604,4.5615,4.5622,4.5625,4.5719,4.5719,4.572,4.5686,4.5684,4.5683,0,0,0,0,0,4.52,4.522,4.5236,4.5251,4.5338,4.539,4.5401,4.5443,4.5449,4.5461,4.5499,4.5521,4.5614,4.5608,4.562,4.5629,4.5718,4.5719,4.5719,4.5687,4.5685,4.5683,0,0,0,0,0,0,4.515,4.5229,4.5248,4.529,4.5333,4.5399,4.5415,4.5439,4.5479,4.5481,4.5529,4.5542,4.5579,4.5608,4.56,4.5659,4.5668,4.5671,4.5639,4.5637,4.5636,4.5628,4.5629,0,0,0,0,0,4.5144,4.5182,4.5248,4.5279,4.53,4.5353,4.5378,4.5407,4.5452,4.547,4.5511,4.5553,4.5592,4.5616,4.5655,4.569,4.5705,4.5703,4.5701,4.5699,4.5701,4.5724,4.5724,4.5721,4.5721,4.5721,0,0,4.5132,4.518,4.52,4.527,4.5307,4.5344,4.5368,4.5405,4.5433,4.5475,4.5518,4.5549,4.5599,4.5638,4.5658,4.5664,4.5706,4.57,4.5698,4.5701,4.5724,4.5724,4.5725,4.5722,4.5722,4.5722,0,0,4.5129,4.5168,4.5199,4.5237,4.5294,4.533,4.5337,4.54,4.5424,4.5468,4.5501,4.5533,4.5598,4.5633,4.5659,4.5672,4.5694,4.5683,4.5674,4.5695,4.5696,4.5696,4.5701,4.5703,4.5685,4.5685,4.5685,0,4.5105,4.5164,4.5211,4.5248,4.5278,4.5321,4.5352,4.5385,4.545,4.5469,4.5476,4.5561,4.5597,4.5646,4.5649,4.5669,4.5678,4.5676,4.5692,4.5693,4.5694,4.57,4.5701,4.5683,4.5683,4.5683,4.5684,0,4.5133,4.5174,4.5191,4.5257,4.5289,4.5322,4.5373,4.54,4.5426,4.5461,4.5506,4.5551,4.5601,4.5615,4.5639,4.5667,4.567,4.5683,4.5694,4.5692,4.5698,4.5701,4.5681,4.5681,4.5682,4.5682,0,0,4.51,4.5194,4.52,4.5231,4.5298,4.5329,4.5364,4.5416,4.5438,4.5482,4.5512,4.5568,4.5582,4.5612,4.5641,4.566,4.5668,4.5672,4.5674,4.567,4.5703,4.5692,4.5694,4.5683,4.5684,4.5684,4.5699,0,4.5107,4.5175,4.5219,4.5269,4.5308,4.535,4.5381,4.5424,4.5458,4.5494,4.5531,4.557,4.5585,4.5604,4.5624,4.5663,4.5675,4.5662,4.5711,4.5713,4.5698,4.5697,4.5686,4.5697,4.5701,4.5702,4.5702,0,4.5123,4.517,4.5224,4.5289,4.5307,4.5334,4.5386,4.542,4.5471,4.5494,4.5529,4.5559,4.5597,4.5605,4.5658,4.5648,4.5671,4.5693,4.5694,4.57,4.5707,4.5704,4.5702,4.5704,4.5706,4.5706,4.5706,0,4.5095,4.517,4.5214,4.5239,4.5315,4.5334,4.5366,4.5417,4.5446,4.549,4.5509,4.5556,4.5582,4.5617,4.5659,4.5661,4.5708,4.5719,4.5728,4.5727,4.5736,4.5735,4.5738,4.575,4.575,4.575,4.575,0,4.5098,4.5129,4.5203,4.5229,4.5266,4.5316,4.5351,4.5386,4.5432,4.5465,4.5503,4.5533,4.5587,4.5623,4.5655,4.5695,4.5706,4.5725,4.5734,4.5722,4.572,4.5738,4.5738,4.575,4.575,4.575,4.575,0,4.5072,4.5122,4.5172,4.5242,4.526,4.5284,4.5343,4.537,4.5407,4.5449,4.5461,4.5518,4.5563,4.5609,4.5668,4.569,4.5729,4.574,4.5713,4.5718,4.5725,4.5724,4.574,4.5745,4.5752,4.5752,4.5752,0,4.5071,4.5097,4.517,4.5197,4.5229,4.5271,4.5302,4.5352,4.5382,4.5443,4.5462,4.551,4.5552,4.5621,4.5667,4.5713,4.5726,4.5728,4.5732,4.5721,4.5727,4.5725,4.5728,4.5726,4.5726,4.5726,4.5725,0,4.5064,4.5088,4.5132,4.5185,4.5222,4.5265,4.531,4.5328,4.5387,4.5419,4.5467,4.5499,4.5562,4.561,4.5662,4.5693,4.5719,4.5724,4.5729,4.5717,4.5701,4.5711,4.5709,4.5723,4.5723,4.5724,4.5724,4.5724,4.5051,4.5077,4.5134,4.5182,4.5221,4.5263,4.5292,4.5334,4.5376,4.5433,4.546,4.5508,4.5559,4.5632,4.5663,4.57,4.5707,4.5714,4.5716,4.5717,4.5714,4.5695,4.571,4.571,4.571,4.571,4.571,0,4.5047,4.5086,4.513,4.5193,4.5231,4.5255,4.5306,4.5335,4.5379,4.5425,4.5466,4.5521,4.5568,4.5618,4.5668,4.5688,4.5701,4.5699,4.5698,4.5705,4.5705,4.5696,4.5688,4.5688,4.5688,4.5688,4.5688,4.5688,4.5049,4.5095,4.5126,4.5192,4.523,4.528,4.5308,4.5346,4.5384,4.5445,4.5485,4.5519,4.5567,4.562,4.5664,4.5678,4.5694,4.5689,4.5705,4.5704,4.5705,4.5707,4.5699,4.5692,4.5692,4.5703,4.5703,4.5703]}]]